1522735200.44,21271,8.38,73142.8,0.91,-19.85,-19.17,0,*49
1522735201.66,21272,8.38,73142.3,0.93,-20.25,-19.61,0,*49
1522735202.92,21273,8.38,73136.8,0.91,-20.05,-19.57,0,*4D
1522735204.14,21274,8.38,73140.3,0.89,-20.15,-19.51,0,*44
1522735205.36,21275,8.38,73136.8,0.89,-20.25,-19.61,0,*45
1522735206.61,21276,8.38,73138.8,0.87,-19.51,-18.89,0,*46
1522735207.84,21277,8.38,73138.0,0.89,-19.31,-18.69,0,*41
1522735209.1,21278,8.38,73140.5,0.87,-19.27,-18.65,0,*4B
1522735210.3,21279,8.38,73138.0,0.89,-19.17,-18.41,0,*41
1522735211.52,21280,8.38,73142.3,0.89,-18.89,-18.17,0,*42
1522735212.75,21281,8.38,73140.5,0.89,-19.07,-18.31,0,*40
1522735214.01,21282,8.38,73142.3,0.91,-18.55,-17.87,0,*4E
1522735215.24,21283,8.38,73140.5,0.91,-18.41,-17.73,0,*41
1522735216.44,21284,8.38,73144.5,0.93,-18.79,-18.07,0,*43
1522735217.7,21285,8.38,73142.5,0.93,-18.93,-18.35,0,*47
1522735218.9,21286,8.38,73144.8,0.93,-19.03,-18.41,0,*4F
1522735220.14,21287,8.38,73146.8,0.93,-19.27,-18.65,0,*4E
1522735221.33,21288,8.38,73144.8,0.93,-19.03,-18.41,0,*41
1522735222.54,21289,8.38,73142.3,0.97,-19.07,-18.45,0,*44
1522735223.77,21290,8.38,73142.0,0.97,-18.73,-18.01,0,*4E
1522735225.02,21291,8.38,73142.8,0.99,-18.73,-17.97,0,*41
1522735226.25,21292,8.38,73142.8,0.99,-18.45,-17.73,0,*4D
1522735227.51,21293,8.38,73144.5,0.99,-18.35,-17.73,0,*4B
1522735228.74,21294,8.38,73144.3,0.99,-18.49,-17.87,0,*4C
1522735230.0,21295,8.38,73148.0,1.03,-18.69,-18.01,0,*7C
1522735231.25,21296,8.38,73144.5,1.03,-18.83,-18.01,0,*7B
1522735232.49,21297,8.38,73146.3,1.01,-18.69,-17.97,0,*7C
1522735233.69,21298,8.38,73146.3,1.01,-19.07,-18.41,0,*7E
1522735234.95,21299,8.38,73140.8,1.03,-18.55,-17.83,0,*7A
1522735236.18,21300,8.38,73138.8,1.03,-18.41,-17.69,0,*7A
1522735237.38,21301,8.38,73132.5,1.05,-18.25,-17.73,0,*74
1522735238.62,21302,8.38,73134.8,1.07,-18.41,-17.73,0,*77
1522735239.85,21303,8.38,73140.0,1.05,-18.41,-17.63,0,*75
1522735241.14,21304,8.38,73146.3,1.07,-18.35,-17.63,0,*73
1522735242.4,21305,8.38,73142.8,1.07,-18.21,-17.59,0,*7E
1522735243.63,21306,8.38,73140.5,1.07,-18.11,-17.49,0,*7F
1522735244.84,21307,8.38,73140.3,1.11,-18.45,-17.83,0,*7E
1522735246.12,21308,8.38,73146.8,1.09,-18.35,-17.59,0,*78
1522735247.4,21309,8.38,73146.3,1.09,-18.59,-17.93,0,*75
1522735248.63,21310,8.38,73144.5,1.11,-18.45,-17.79,0,*7D
1522735249.86,21311,8.38,73150.5,1.11,-18.45,-17.79,0,*7C
1522735251.1,21312,8.38,73152.3,1.11,-18.55,-17.87,0,*7F
1522735252.33,21313,8.38,73150.3,1.11,-18.45,-17.79,0,*7E
1522735253.53,21314,8.38,73146.0,1.11,-18.25,-17.49,0,*7C
1522735254.78,21315,8.38,73146.5,1.13,-18.89,-18.25,0,*7C
1522735256.04,21316,8.38,73150.0,1.13,-18.73,-18.01,0,*7C
1522735257.3,21317,8.38,73146.0,1.13,-18.25,-17.55,0,*70
1522735258.5,21318,8.38,73150.3,1.15,-18.25,-17.49,0,*74
1522735259.76,21319,8.38,73140.5,1.15,-18.35,-17.63,0,*7C
1522735261.0,21320,8.38,73142.5,1.15,-18.55,-18.07,0,*7D
1522735262.23,21321,8.38,73140.8,1.17,-18.83,-18.21,0,*71
1522735263.49,21322,8.38,73136.5,1.17,-19.13,-18.35,0,*7F
1522735264.74,21323,8.38,73138.3,1.17,-18.89,-18.25,0,*7D
1522735266.0,21324,8.38,73136.5,1.17,-19.27,-18.69,0,*77
1522735267.23,21325,8.38,73140.5,1.17,-19.47,-18.73,0,*7B
1522735268.52,21326,8.38,73142.5,1.13,-19.65,-18.93,0,*72
1522735269.76,21327,8.38,73140.3,1.15,-19.31,-18.69,0,*71
1522735271.0,21328,8.44,73136.3,1.13,-19.37,-18.73,0,*75
1522735272.25,21329,8.38,73134.5,1.13,-19.47,-18.89,0,*76
1522735273.51,21330,8.38,73136.0,1.13,-19.47,-18.93,0,*75
1522735274.75,21331,8.38,73136.0,1.13,-19.71,-19.17,0,*7C
1522735275.98,21332,8.38,73134.8,1.11,-19.51,-18.93,0,*72
1522735277.21,21333,8.38,73138.3,1.11,-19.61,-19.07,0,*7C
1522735278.44,21334,8.38,73136.8,1.09,-19.71,-18.99,0,*75
1522735279.64,21335,8.38,73134.0,1.11,-19.47,-18.79,0,*76
1522735280.88,21336,8.38,73132.8,1.09,-19.13,-18.65,0,*70
1522735282.11,21337,8.38,73132.3,1.09,-19.37,-18.73,0,*70
1522735283.34,21338,8.38,73126.5,1.09,-19.07,-18.49,0,*75
1522735284.57,21339,8.38,73130.8,1.09,-18.83,-18.21,0,*77
1522735285.83,21340,8.38,73130.8,1.09,-18.99,-18.35,0,*77
1522735287.11,21341,8.38,73134.3,1.09,-19.65,-18.93,0,*78
1522735288.36,21342,8.38,73132.3,1.09,-19.75,-19.23,0,*70
1522735289.64,21343,8.38,73132.8,1.07,-20.19,-19.61,0,*79
1522735290.93,21344,8.38,73126.3,1.07,-20.19,-19.57,0,*7B
1522735292.16,21345,8.38,73126.5,1.05,-19.91,-19.27,0,*75
1522735293.39,21346,8.38,73122.5,1.05,-20.09,-19.61,0,*7F
1522735294.59,21347,8.38,73122.3,1.05,-19.47,-18.99,0,*78
1522735295.81,21348,8.38,73124.0,1.03,-19.75,-19.17,0,*77
1522735297.07,21349,8.38,73124.0,1.05,-19.57,-18.89,0,*76
1522735298.31,21350,8.38,73120.0,1.01,-19.81,-19.23,0,*70
1522735299.56,21351,8.38,73126.5,1.01,-20.15,-19.65,0,*74
1522735300.76,21352,8.38,73122.8,1.01,-20.09,-19.51,0,*7D
1522735302.01,21353,8.38,73122.0,0.99,-20.05,-19.41,0,*41
1522735303.28,21354,8.44,73126.5,0.99,-20.35,-19.85,0,*4D
1522735304.51,21355,8.44,73126.0,0.97,-19.99,-19.41,0,*46
1522735305.71,21356,8.38,73124.3,0.97,-19.91,-19.37,0,*4C
1522735306.94,21357,8.38,73124.8,0.97,-19.71,-19.23,0,*46
1522735308.19,21358,8.38,73128.8,0.97,-19.85,-19.27,0,*46
1522735309.42,21359,8.38,73132.8,0.93,-19.95,-19.31,0,*45
1522735310.65,21360,8.38,73120.5,0.91,-19.71,-18.99,0,*44
1522735311.88,21361,8.38,73126.3,0.97,-19.99,-19.41,0,*41
1522735313.11,21362,8.38,73128.3,0.91,-19.71,-19.13,0,*45
1522735314.37,21363,8.38,73126.0,0.91,-19.61,-18.99,0,*46
1522735315.62,21364,8.38,73130.0,0.91,-19.47,-18.93,0,*4F
1522735316.9,21365,8.38,73128.3,0.91,-19.41,-18.93,0,*48
1522735318.12,21366,8.38,73132.3,0.93,-19.61,-19.03,0,*43
1522735319.41,21367,8.38,73134.5,0.91,-19.57,-18.93,0,*4D
1522735320.66,21368,8.38,73130.8,0.91,-19.41,-18.83,0,*44
1522735321.88,21369,8.38,73130.3,0.91,-19.75,-19.17,0,*4E
1522735323.08,21370,8.44,73130.3,0.89,-19.51,-18.99,0,*4E
1522735324.3,21371,8.44,73132.0,0.89,-19.47,-18.89,0,*49
1522735325.5,21372,8.38,73134.8,0.89,-19.51,-18.83,0,*47
1522735326.72,21373,8.38,73132.5,0.89,-19.07,-18.55,0,*4E
1522735327.92,21374,8.38,73128.5,0.89,-19.75,-19.17,0,*4B
1522735329.17,21375,8.44,73134.8,0.89,-19.61,-18.89,0,*49
1522735330.4,21376,8.38,73132.5,0.89,-19.23,-18.69,0,*42
1522735331.68,21377,8.44,73136.3,0.87,-20.15,-19.57,0,*4E
1522735332.9,21378,8.44,73138.3,0.87,-20.05,-19.51,0,*46
1522735334.12,21379,8.44,73134.0,0.89,-19.61,-19.03,0,*46
1522735335.35,21380,8.44,73144.0,0.87,-19.81,-19.07,0,*44
1522735336.6,21381,8.38,73132.5,0.87,-19.41,-18.79,0,*41
1522735337.82,21382,8.38,73128.3,0.87,-19.51,-19.03,0,*4F
1522735339.04,21383,8.38,73134.3,0.85,-19.41,-18.79,0,*41
1522735340.29,21384,8.38,73134.0,0.85,-19.85,-19.23,0,*40
1522735341.51,21385,8.38,73134.8,0.83,-19.47,-18.79,0,*47
1522735342.74,21386,8.38,73138.5,0.85,-19.13,-18.59,0,*41
1522735343.94,21387,8.44,73140.5,0.85,-19.07,-18.49,0,*44
1522735345.16,21388,8.44,73138.8,0.85,-19.07,-18.59,0,*4A
1522735346.38,21389,8.44,73140.8,0.85,-19.57,-19.03,0,*40
1522735347.61,21390,8.38,73132.3,0.83,-20.05,-19.47,0,*43
1522735348.8,21391,8.44,73134.5,0.85,-20.29,-19.71,0,*4F
1522735350.05,21392,8.44,73136.0,0.83,-20.25,-19.61,0,*47
1522735351.33,21393,8.38,73140.0,0.83,-20.49,-19.85,0,*46
1522735352.59,21394,8.44,73140.0,0.81,-19.57,-18.93,0,*40
1522735353.81,21395,8.38,73140.3,0.81,-19.91,-19.31,0,*42
1522735355.04,21396,8.44,73144.0,0.79,-19.75,-19.17,0,*48
1522735356.27,21397,8.38,73142.3,0.79,-19.03,-18.45,0,*4E
1522735357.5,21398,8.38,73142.0,0.79,-18.73,-18.11,0,*46
1522735358.72,21399,8.38,73134.5,0.81,-19.31,-18.79,0,*49
1522735359.92,21400,8.44,73140.5,0.81,-18.79,-18.25,0,*4A
1522735361.19,21401,8.38,73138.5,0.83,-19.27,-18.65,0,*47
1522735362.44,21402,8.38,73138.8,0.85,-19.23,-18.59,0,*49
1522735363.67,21403,8.38,73142.3,0.83,-18.69,-18.07,0,*4A
1522735364.9,21404,8.38,73140.8,0.85,-18.65,-17.97,0,*41
1522735366.16,21405,8.44,73146.3,0.83,-18.55,-17.87,0,*44
1522735367.41,21406,8.44,73140.5,0.85,-18.59,-18.01,0,*4C
1522735368.62,21407,8.44,73138.3,0.85,-18.45,-17.83,0,*45
1522735369.85,21408,8.38,73128.8,0.87,-18.21,-17.69,0,*4E
1522735371.07,21409,8.44,73134.5,0.89,-18.17,-17.63,0,*4E
1522735372.27,21410,8.38,73132.3,0.89,-18.17,-17.69,0,*4C
1522735373.49,21411,8.44,73134.8,0.89,-18.17,-17.63,0,*47
1522735374.69,21412,8.38,73134.0,0.89,-18.25,-17.69,0,*4F
1522735375.95,21413,8.44,73134.5,0.91,-18.35,-17.73,0,*4D
1522735377.18,21414,8.44,73132.8,0.93,-18.11,-17.59,0,*46
1522735378.41,21415,8.38,73130.8,0.93,-18.07,-17.45,0,*4D
1522735379.61,21416,8.38,73126.3,0.93,-17.87,-17.31,0,*4A
1522735380.83,21417,8.38,73128.3,0.97,-17.69,-17.11,0,*4D
1522735382.06,21418,8.38,73130.5,0.97,-18.17,-17.59,0,*48
1522735383.32,21419,8.44,73132.3,0.99,-18.93,-18.45,0,*49
1522735384.52,21420,8.44,73130.8,1.01,-18.73,-18.25,0,*7B
1522735385.76,21421,8.38,73126.3,0.99,-18.99,-18.59,0,*45
1522735387.0,21422,8.38,73128.0,0.99,-18.99,-18.45,0,*4B
1522735388.22,21423,8.44,73132.3,1.01,-19.17,-18.59,0,*70
1522735389.49,21424,8.44,73136.3,0.99,-19.27,-18.73,0,*4C
1522735390.74,21425,8.38,73122.8,0.99,-19.37,-18.89,0,*49
1522735392.0,21426,8.44,73124.0,0.99,-18.79,-18.35,0,*46
1522735393.26,21427,8.38,73122.3,0.99,-18.79,-18.31,0,*43
1522735394.49,21428,8.44,73128.5,0.99,-19.37,-18.79,0,*4B
1522735395.74,21429,8.44,73128.8,0.99,-19.07,-18.59,0,*4B
1522735396.98,21430,8.44,73130.0,0.99,-19.13,-18.45,0,*4B
1522735398.21,21431,8.44,73136.5,0.97,-18.93,-18.45,0,*4D
1522735399.46,21432,8.38,73136.5,0.99,-19.13,-18.59,0,*44
1522735400.69,21433,8.44,73132.5,0.99,-18.73,-18.17,0,*48
1522735401.95,21434,8.44,73140.8,0.99,-18.31,-17.87,0,*4F
1522735403.2,21435,8.44,73146.0,0.99,-18.73,-18.01,0,*49
1522735404.47,21436,8.44,73150.8,0.99,-18.35,-17.83,0,*4D
1522735405.73,21437,8.44,73150.8,0.99,-18.35,-17.83,0,*4C
1522735406.96,21438,8.38,73142.5,0.99,-18.21,-17.69,0,*42
1522735408.19,21439,8.44,73146.5,1.01,-18.25,-17.63,0,*7D
1522735409.44,21440,8.44,73146.8,1.03,-18.17,-17.63,0,*70
1522735410.72,21441,8.44,73142.0,1.03,-18.01,-17.41,0,*76
1522735411.95,21442,8.44,73140.3,1.05,-18.21,-17.59,0,*78
1522735413.16,21443,8.44,73146.3,1.05,-18.41,-17.87,0,*7C
1522735414.42,21444,8.44,73144.3,1.07,-18.35,-17.73,0,*71
1522735415.68,21445,8.44,73146.5,1.07,-18.21,-17.59,0,*7D
1522735416.89,21446,8.44,73146.3,1.05,-18.21,-17.73,0,*74
1522735418.12,21447,8.44,73148.3,1.07,-18.07,-17.49,0,*7A
1522735419.4,21448,8.44,73142.0,1.09,-18.01,-17.45,0,*71
1522735420.68,21449,8.44,73144.5,1.09,-18.01,-17.45,0,*70
1522735421.96,21450,8.44,73150.0,1.09,-17.93,-17.45,0,*7C
1522735423.19,21451,8.44,73148.5,1.09,-18.65,-18.17,0,*73
1522735424.43,21452,8.44,73146.3,1.13,-19.07,-18.69,0,*77
1522735425.63,21453,8.38,73140.3,1.11,-19.37,-18.83,0,*73
1522735426.89,21454,8.38,73146.0,1.09,-18.35,-17.73,0,*7E
1522735428.16,21455,8.44,73146.5,1.09,-18.59,-18.01,0,*7F
1522735429.39,21456,8.44,73144.8,1.09,-18.73,-18.17,0,*73
1522735430.66,21457,8.44,73146.5,1.09,-19.27,-18.73,0,*70
1522735431.88,21458,8.44,73150.3,1.11,-18.89,-18.25,0,*70
1522735433.14,21459,8.44,73142.3,1.11,-18.59,-17.97,0,*7A
1522735434.37,21460,8.44,73142.8,1.09,-18.79,-18.21,0,*79
1522735435.61,21461,8.44,73140.5,1.11,-18.79,-18.31,0,*70
1522735436.84,21462,8.44,73144.0,1.09,-18.73,-18.21,0,*71
1522735438.09,21463,8.44,73144.8,1.11,-18.59,-17.97,0,*73
1522735439.33,21464,8.44,73146.3,1.09,-18.45,-17.87,0,*71
1522735440.56,21465,8.44,73148.0,1.09,-18.07,-17.69,0,*76
1522735441.8,21466,8.44,73154.3,1.11,-18.41,-17.97,0,*7F
1522735443.04,21467,8.44,73154.0,1.11,-18.45,-17.97,0,*7A
1522735444.24,21468,8.44,73152.5,1.11,-18.79,-18.41,0,*7E
1522735445.5,21469,8.44,73150.5,1.09,-19.27,-18.79,0,*77
1522735446.71,21470,8.44,73142.3,1.11,-18.73,-18.11,0,*78
1522735447.97,21471,8.44,73142.0,1.11,-18.55,-18.01,0,*7C
1522735449.18,21472,8.44,73142.3,1.11,-19.07,-18.49,0,*75
1522735450.4,21473,8.44,73144.5,1.11,-19.07,-18.59,0,*75
1522735451.63,21474,8.44,73148.3,1.09,-18.65,-18.07,0,*75
1522735452.9,21475,8.44,73144.5,1.09,-18.31,-17.83,0,*76
1522735454.13,21476,8.44,73152.3,1.11,-18.73,-18.31,0,*7C
1522735455.39,21477,8.44,73148.5,1.11,-18.93,-18.55,0,*71
1522735456.62,21478,8.44,73142.0,1.09,-18.65,-18.17,0,*78
1522735457.82,21479,8.44,73140.5,1.11,-18.83,-18.45,0,*7F
1522735459.06,21480,8.44,73146.3,1.11,-18.73,-18.31,0,*75
1522735460.3,21481,8.44,73144.3,1.11,-18.41,-17.97,0,*76
1522735461.55,21482,8.44,73144.3,1.09,-18.45,-17.93,0,*7C
1522735462.78,21483,8.44,73146.5,1.11,-18.17,-17.79,0,*77
1522735463.99,21484,8.44,73148.5,1.11,-18.17,-17.69,0,*71
1522735465.25,21485,8.44,73150.8,1.13,-18.01,-17.69,0,*75
1522735466.47,21486,8.44,73146.8,1.13,-18.73,-18.25,0,*74
1522735467.73,21487,8.44,73152.8,1.13,-18.59,-18.17,0,*7C
1522735468.98,21488,8.44,73152.0,1.13,-19.31,-18.79,0,*74
1522735470.22,21489,8.44,73152.5,1.13,-18.69,-18.17,0,*71
1522735471.46,21490,8.44,73152.0,1.13,-19.03,-18.59,0,*7E
1522735472.67,21491,8.44,73150.5,1.11,-19.17,-18.79,0,*7A
1522735473.88,21492,8.44,73138.8,1.11,-18.79,-18.45,0,*7F
1522735475.12,21493,8.44,73130.3,1.11,-18.73,-18.31,0,*77
1522735476.36,21494,8.44,73122.8,1.09,-19.41,-18.83,0,*70
1522735477.61,21495,8.44,73118.5,1.11,-18.89,-18.55,0,*76
1522735478.87,21496,8.44,73126.0,1.09,-19.65,-19.47,0,*7D
1522735480.09,21497,8.44,73132.3,1.09,-20.29,-19.99,0,*7D
1522735481.3,21498,8.44,73134.5,1.05,-20.25,-19.95,0,*7E
1522735482.53,21499,8.44,73126.8,1.05,-19.95,-19.61,0,*75
1522735483.76,21500,8.44,73128.5,1.05,-19.71,-19.27,0,*7C
1522735485.02,21501,8.44,73134.0,1.03,-19.95,-19.65,0,*77
1522735486.28,21502,8.44,73134.3,1.03,-20.43,-20.15,0,*78
1522735487.5,21503,8.44,73126.8,1.01,-20.25,-19.85,0,*78
1522735488.73,21504,8.44,73128.0,1.01,-19.75,-19.31,0,*7F
1522735489.98,21505,8.44,73126.0,1.01,-19.85,-19.61,0,*74
1522735491.21,21506,8.44,73136.3,0.99,-19.99,-19.71,0,*4B
1522735492.47,21507,8.44,73136.0,0.97,-20.49,-20.19,0,*47
1522735493.69,21508,8.44,73134.8,0.97,-20.19,-19.91,0,*47
1522735494.92,21509,8.44,73134.3,0.93,-20.49,-20.25,0,*42
1522735496.15,21510,8.44,73138.5,0.91,-20.25,-20.09,0,*4C
1522735497.41,21511,8.44,73140.3,0.91,-20.49,-20.25,0,*49
1522735498.66,21512,8.44,73140.8,0.91,-20.19,-19.91,0,*4A
1522735499.92,21513,8.44,73138.8,0.87,-19.95,-19.41,0,*4F
1522735501.17,21514,8.44,73140.8,0.89,-19.61,-19.23,0,*49
1522735502.41,21515,8.44,73144.3,0.87,-19.57,-19.07,0,*45
1522735503.63,21516,8.44,73146.0,0.87,-19.51,-19.07,0,*40
1522735504.88,21517,8.44,73142.0,0.87,-19.41,-19.03,0,*44
1522735506.15,21518,8.44,73140.0,0.87,-19.41,-18.93,0,*43
1522735507.35,21519,8.44,73142.0,0.89,-19.17,-18.83,0,*4E
1522735508.58,21520,8.44,73146.0,0.87,-19.03,-18.65,0,*47
1522735509.82,21521,8.44,73146.3,0.87,-19.03,-18.59,0,*49
1522735511.11,21522,8.44,73146.3,0.91,-19.27,-18.93,0,*4D
1522735512.36,21523,8.44,73146.8,0.89,-19.23,-18.89,0,*4A
1522735513.56,21524,8.44,73142.5,0.89,-19.07,-18.69,0,*45
1522735514.83,21525,8.44,73142.5,0.87,-19.41,-18.93,0,*4D
1522735516.08,21526,8.44,73132.5,0.87,-19.65,-19.07,0,*44
1522735517.33,21527,8.44,73146.0,0.87,-19.27,-18.79,0,*4B
1522735518.58,21528,8.44,73146.0,0.87,-19.85,-19.51,0,*47
1522735519.85,21529,8.44,73150.5,0.87,-19.81,-19.41,0,*43
1522735521.11,21530,8.44,73148.5,0.85,-19.27,-18.93,0,*4B
1522735522.37,21531,8.44,73146.3,0.85,-19.27,-18.93,0,*4A
1522735523.58,21532,8.44,73146.3,0.85,-19.13,-18.65,0,*47
1522735524.78,21533,8.44,73148.8,0.85,-19.07,-18.65,0,*43
1522735526.06,21534,8.44,73146.3,0.87,-18.89,-18.35,0,*44
1522735527.31,21535,8.44,73148.3,0.87,-19.27,-18.79,0,*48
1522735528.54,21536,8.44,73144.5,0.83,-19.47,-19.07,0,*41
1522735529.74,21537,8.44,73146.0,0.85,-19.71,-19.37,0,*40
1522735530.97,21538,8.44,73150.5,0.85,-19.71,-19.41,0,*4E
1522735532.25,21539,8.44,73148.3,0.83,-20.19,-19.85,0,*45
1522735533.51,21540,8.44,73150.5,0.83,-19.71,-19.41,0,*47
1522735534.77,21541,8.44,73148.0,0.83,-19.71,-19.41,0,*46
1522735536.0,21542,8.44,73144.5,0.83,-19.17,-18.83,0,*4A
1522735537.23,21543,8.44,73150.3,0.81,-19.27,-18.99,0,*41
1522735538.45,21544,8.44,73150.5,0.81,-19.31,-19.07,0,*47
1522735539.66,21545,8.44,73148.8,0.81,-19.17,-18.69,0,*4B
1522735540.92,21546,8.44,73152.3,0.83,-19.57,-19.13,0,*42
1522735542.13,21547,8.44,73152.5,0.81,-19.17,-18.83,0,*4D
1522735543.36,21548,8.44,73152.0,0.81,-19.71,-19.31,0,*4A
1522735544.58,21549,8.44,73150.5,0.81,-20.09,-19.61,0,*4B
1522735545.79,21550,8.44,73150.3,0.81,-19.47,-19.13,0,*46
1522735547.04,21551,8.44,73148.3,0.79,-19.95,-19.61,0,*4A
1522735548.3,21552,8.44,73148.0,0.79,-19.27,-18.99,0,*46
1522735549.53,21553,8.44,73148.3,0.81,-19.71,-19.31,0,*40
1522735550.79,21554,8.44,73148.5,0.81,-19.27,-18.93,0,*4D
1522735551.99,21555,8.44,73150.3,0.81,-19.17,-18.83,0,*4E
1522735553.27,21556,8.44,73150.5,0.79,-19.23,-18.89,0,*47
1522735554.49,21557,8.44,73148.5,0.77,-19.23,-19.03,0,*4B
1522735555.69,21558,8.44,73148.3,0.77,-19.37,-19.03,0,*41
1522735556.94,21559,8.44,73148.3,0.79,-19.23,-18.83,0,*42
1522735558.21,21560,8.44,73144.8,0.79,-19.23,-18.89,0,*42
1522735559.49,21561,8.44,73144.8,0.79,-19.31,-18.89,0,*40
1522735560.7,21562,8.44,73148.8,0.77,-19.17,-18.73,0,*4C
1522735561.93,21563,8.44,73150.3,0.77,-19.23,-18.73,0,*4A
1522735563.15,21564,8.44,73144.0,0.77,-19.23,-18.83,0,*42
1522735564.37,21565,8.44,73150.0,0.77,-19.23,-18.83,0,*43
1522735565.59,21566,8.44,73152.3,0.77,-19.03,-18.59,0,*45
1522735566.86,21567,8.44,73158.5,0.79,-19.23,-18.89,0,*45
1522735568.08,21568,8.44,73152.5,0.79,-20.05,-19.51,0,*40
1522735569.34,21569,8.44,73144.0,0.79,-19.95,-19.61,0,*41
1522735570.54,21570,8.44,73142.8,0.73,-19.81,-19.51,0,*45
1522735571.75,21571,8.44,73142.3,0.77,-19.51,-19.17,0,*4F
1522735572.99,21572,8.44,73142.8,0.77,-19.23,-18.89,0,*4F
1522735574.22,21573,8.44,73142.5,0.77,-19.23,-18.99,0,*4F
1522735575.41,21574,8.44,73138.0,0.73,-19.51,-19.17,0,*4E
1522735576.61,21575,8.44,73130.5,0.77,-19.51,-19.17,0,*4B
1522735577.85,21576,8.44,73124.3,0.73,-19.65,-19.27,0,*48
1522735579.03,21577,8.44,73120.8,0.73,-19.51,-19.07,0,*4C
1522735580.24,21578,8.44,73124.8,0.73,-19.23,-18.79,0,*4E
1522735581.49,21579,8.44,73126.0,0.77,-19.23,-18.89,0,*44
1522735582.68,21580,8.44,73124.3,0.73,-19.17,-18.73,0,*44
1522735583.88,21581,8.44,73128.8,0.73,-19.17,-18.73,0,*45
1522735585.08,21582,8.44,73128.0,0.77,-19.17,-18.83,0,*4D
1522735586.31,21583,8.44,73130.3,0.73,-19.65,-19.23,0,*46
1522735587.5,21584,8.44,73130.3,0.73,-19.51,-19.17,0,*41
1522735588.72,21585,8.44,73132.0,0.73,-19.27,-18.79,0,*48
1522735589.93,21586,8.44,73138.3,0.73,-19.23,-18.79,0,*4F
1522735591.12,21587,8.44,73136.3,0.73,-19.37,-19.03,0,*47
1522735592.33,21588,8.44,73132.8,0.73,-19.99,-19.65,0,*4C
1522735593.57,21589,8.44,73130.0,0.73,-19.85,-19.57,0,*41
1522735594.8,21590,8.44,73134.8,0.67,-20.29,-19.85,0,*4F
1522735596.03,21591,8.44,73142.3,0.67,-20.43,-20.29,0,*4E
1522735597.27,21592,8.44,73146.8,0.67,-20.59,-20.19,0,*45
1522735598.52,21593,8.44,73144.8,0.67,-19.65,-19.17,0,*45
1522735599.74,21594,8.44,73144.0,0.67,-19.37,-19.03,0,*40
1522735601.01,21595,8.44,73140.5,0.67,-19.27,-18.89,0,*43
1522735602.22,21596,8.44,73144.5,0.65,-19.31,-18.99,0,*44
1522735603.43,21597,8.44,73146.5,0.65,-19.31,-19.03,0,*47
1522735604.67,21598,8.44,73148.5,0.65,-19.65,-19.31,0,*48
1522735605.9,21599,8.44,73144.0,0.67,-19.81,-19.51,0,*47
1522735607.11,21600,8.44,73138.8,0.65,-20.09,-19.81,0,*41
1522735608.33,21601,8.44,73150.8,0.67,-20.39,-20.05,0,*47
1522735609.53,21602,8.44,73154.5,0.63,-19.51,-19.07,0,*4C
1522735610.76,21603,8.44,73154.0,0.63,-19.37,-19.17,0,*4C
1522735612.03,21604,8.44,73146.8,0.63,-19.57,-19.31,0,*49
1522735613.23,21605,8.44,73144.8,0.63,-19.51,-19.07,0,*4B
1522735614.47,21606,8.44,73150.3,0.63,-20.09,-19.81,0,*41
1522735615.68,21607,8.44,73152.5,0.65,-19.65,-19.47,0,*4C
1522735616.9,21608,8.44,73148.8,0.63,-19.71,-19.37,0,*47
1522735618.12,21609,8.44,73152.3,0.63,-19.51,-19.17,0,*46
1522735619.35,21610,8.44,73150.8,0.63,-19.41,-19.03,0,*4A
1522735620.56,21611,8.44,73148.3,0.61,-19.85,-19.51,0,*46
1522735621.77,21612,8.44,73148.5,0.59,-19.37,-18.99,0,*42
1522735623.02,21613,8.44,73146.0,0.61,-19.31,-18.89,0,*4F
1522735624.26,21614,8.44,73142.8,0.61,-19.31,-18.93,0,*43
1522735625.5,21615,8.44,73136.3,0.61,-19.31,-18.89,0,*49
1522735626.74,21616,8.44,73128.5,0.61,-19.23,-18.89,0,*49
1522735627.93,21617,8.44,73128.8,0.61,-19.03,-18.65,0,*48
1522735629.19,21618,8.44,73130.8,0.63,-19.65,-19.31,0,*45
1522735630.42,21619,8.44,73130.5,0.61,-19.95,-19.57,0,*49
1522735631.63,21620,8.44,73132.5,0.63,-20.25,-19.71,0,*44
1522735632.87,21621,8.5,73138.5,0.63,-19.99,-19.65,0,*4D
1522735634.11,21622,8.44,73134.8,0.61,-19.81,-19.41,0,*43
1522735635.35,21623,8.44,73132.8,0.59,-19.75,-19.41,0,*42
1522735636.56,21624,8.44,73136.0,0.61,-19.85,-19.37,0,*40
1522735637.75,21625,8.44,73138.8,0.61,-19.71,-19.37,0,*4A
1522735638.99,21626,8.44,73132.0,0.59,-19.47,-18.93,0,*48
1522735640.21,21627,8.44,73134.0,0.59,-19.07,-18.69,0,*48
1522735641.4,21628,8.5,73144.5,0.61,-19.17,-18.79,0,*4C
1522735642.61,21629,8.44,73146.3,0.65,-19.51,-19.23,0,*45
1522735643.85,21630,8.44,73146.3,0.63,-19.95,-19.65,0,*41
1522735645.05,21631,8.44,73140.0,0.61,-19.71,-19.37,0,*4F
1522735646.26,21632,8.44,73140.0,0.59,-19.99,-19.71,0,*43
1522735647.5,21633,8.44,73132.8,0.61,-19.65,-19.23,0,*4D
1522735648.77,21634,8.44,73132.8,0.59,-19.61,-19.27,0,*41
1522735649.98,21635,8.44,73132.3,0.59,-19.47,-19.07,0,*46
1522735651.19,21636,8.44,73138.5,0.59,-19.37,-18.99,0,*44
1522735652.43,21637,8.44,73138.5,0.61,-19.31,-18.89,0,*49
1522735653.67,21638,8.44,73134.8,0.59,-19.23,-18.69,0,*40
1522735654.86,21639,8.44,73134.0,0.61,-19.03,-18.65,0,*44
1522735656.05,21640,8.44,73132.0,0.61,-19.17,-18.79,0,*42
1522735657.27,21641,8.44,73128.8,0.61,-19.37,-18.89,0,*4E
1522735658.51,21642,8.44,73128.5,0.61,-19.65,-19.31,0,*48
1522735659.73,21643,8.44,73124.0,0.63,-19.71,-19.37,0,*48
1522735660.95,21644,8.5,73126.8,0.59,-19.71,-19.37,0,*46
1522735662.17,21645,8.44,73122.0,0.63,-19.71,-19.37,0,*4E
1522735663.39,21646,8.44,73122.8,0.61,-19.57,-19.17,0,*49
1522735664.59,21647,8.44,73120.8,0.59,-19.47,-19.07,0,*43
1522735665.8,21648,8.44,73118.5,0.59,-19.47,-19.07,0,*4C
1522735667.02,21649,8.5,73124.5,0.61,-19.57,-19.17,0,*46
1522735668.26,21650,8.44,73112.5,0.61,-19.41,-18.93,0,*44
1522735669.47,21651,8.44,73118.5,0.59,-19.37,-18.83,0,*4E
1522735670.7,21652,8.44,73130.5,0.59,-19.13,-18.65,0,*43
1522735671.94,21653,8.5,73130.5,0.59,-19.71,-19.27,0,*41
1522735673.15,21654,8.44,73132.5,0.61,-20.15,-19.71,0,*46
1522735674.38,21655,8.44,73128.0,0.59,-20.05,-19.61,0,*4C
1522735675.59,21656,8.44,73130.3,0.59,-20.29,-19.75,0,*44
1522735676.84,21657,8.44,73126.5,0.59,-19.99,-19.57,0,*44
1522735678.07,21658,8.5,73134.8,0.59,-19.71,-19.23,0,*4E
1522735679.28,21659,8.44,73138.0,0.57,-20.05,-19.65,0,*4A
1522735680.55,21660,8.44,73138.3,0.55,-19.65,-19.27,0,*48
1522735681.76,21661,8.44,73138.3,0.57,-19.75,-19.31,0,*4D
1522735682.98,21662,8.5,73138.0,0.55,-19.51,-19.13,0,*4A
1522735684.16,21663,8.5,73136.8,0.57,-19.75,-19.17,0,*4B
1522735685.38,21664,8.5,73140.0,0.57,-19.61,-19.13,0,*4D
1522735686.63,21665,8.44,73138.3,0.57,-19.61,-19.27,0,*4B
1522735687.81,21666,8.44,73136.5,0.57,-19.75,-19.17,0,*4E
1522735689.0,21667,8.44,73140.5,0.57,-19.51,-19.03,0,*4C
1522735690.24,21668,8.5,73138.8,0.55,-19.65,-19.17,0,*43
1522735691.45,21669,8.5,73138.0,0.57,-19.51,-18.89,0,*41
1522735692.67,21670,8.44,73132.5,0.55,-20.39,-19.91,0,*47
1522735693.91,21671,8.44,73134.0,0.55,-20.53,-19.91,0,*4A
1522735695.1,21672,8.5,73140.5,0.53,-20.59,-20.09,0,*4E
1522735696.32,21673,8.44,73136.5,0.51,-20.89,-20.29,0,*42
1522735697.55,21674,8.5,73140.5,0.51,-20.59,-20.09,0,*4A
1522735698.81,21675,8.5,73142.0,0.47,-19.85,-19.27,0,*41
1522735700.02,21676,8.5,73140.3,0.53,-19.47,-18.89,0,*4C
1522735701.24,21677,8.44,73136.5,0.51,-19.95,-19.47,0,*43
1522735702.45,21678,8.5,73140.0,0.51,-19.71,-19.07,0,*42
1522735703.66,21679,8.5,73146.5,0.51,-19.71,-19.07,0,*43
1522735704.9,21680,8.44,73144.3,0.51,-19.57,-19.07,0,*41
1522735706.11,21681,8.44,73142.3,0.53,-19.57,-19.03,0,*46
1522735707.35,21682,8.5,73142.3,0.51,-19.57,-19.07,0,*43
1522735708.62,21683,8.44,73142.3,0.47,-19.41,-18.93,0,*4E
1522735709.83,21684,8.44,73138.8,0.51,-19.51,-19.03,0,*47